Regional Weather Roundup
Issued by NWS

Home | Current Version | Previous Version | Text Only | Print | Product List | Glossary On
Versions: 1 2 3 4 5 6 7 8 9 10 11 12 13 14 15 16 17 18 19 20 21 22 23 24 25 26 27
000
ASUS45 KCYS 221710
RWRWY

WYOMING REGIONAL WEATHER ROUNDUP
NATIONAL WEATHER SERVICE CHEYENNE WY
1100 AM MDT TUE MAY 22 2018

NOTE:  "FAIR" INDICATES FEW OR NO CLOUDS BELOW 12,000 FEET
WITH NO SIGNIFICANT WEATHER AND/OR OBSTRUCTIONS TO VISIBILITY.

WYZ001-221800-
YELLOWSTONE NATIONAL PARK

CITY           SKY/WX    TMP DP  RH WIND       PRES   REMARKS
LK YELLOWSTONE   N/A     46  37  71 CALM      30.16F
W YELLOWSTONE  NOT AVBL

$$
WYZ002>013-054>058-071-098>099-221800-
NORTHERN WYOMING

CITY           SKY/WX    TMP DP  RH WIND       PRES   REMARKS
JACKSON        FAIR      56  41  57 VRB5      30.06F
CODY           FAIR      64  47  53 NE3       30.06S
GREYBULL       FAIR      68  48  48 NE5       29.99F
WORLAND        FAIR      62  50  64 CALM      30.00F
SHERIDAN       FAIR      69  52  54 E6        30.01F
BUFFALO        FAIR      67  48  50 MISG      30.05F
GILLETTE       FAIR      71  52  50 VRB7      30.01S
NEWCASTLE      FAIR      73  41  31 W5        30.00F

$$
WYZ014>020-022>026-101>103-221800-
CENTRAL WYOMING

CITY           SKY/WX    TMP DP  RH WIND       PRES   REMARKS
BIG PINEY      CLOUDY    63  36  36 NE6       30.05S
PINEDALE       CLOUDY    63  34  34 E7        30.07R
DUBOIS         FAIR      57  37  47 E10       30.11S
LANDER         FAIR      60  48  64 CALM      30.04S
RIVERTON       FAIR      62  46  55 N6        30.04F
CASPER         FAIR      67  50  54 E9        30.01F
DOUGLAS        FAIR      69  56  62 SE7       30.01F

$$
WYZ021-027>030-104>119-221800-
SOUTHERN WYOMING

CITY           SKY/WX    TMP DP  RH WIND       PRES   REMARKS
EVANSTON       CLOUDY    52  40  63 SW5       30.05F
KEMMERER       FAIR      55  37  50 CALM      30.10R
FORT BRIDGER   FAIR      60  41  48 NW8       30.10S
ROCK SPRINGS   FAIR      60  42  51 NE14      30.02F
DIXON          FAIR      66  35  32 SW6       30.03S
RAWLINS        FAIR      68  39  34 VRB5      30.02F
SARATOGA       FAIR      66  32  28 CALM      30.02F
LARAMIE        FAIR      68  41  37 E15G24    30.04F
CHEYENNE       FAIR      66  54  65 E9        30.02F
TORRINGTON     FAIR      72  60  66 SE8       29.95S
PINE BLUFFS    FAIR      66  55  68 NE5       29.99F

$$




USA.gov is the U.S. government's official web portal to all federal, state and local government web resources and services.